Location: Chervonnoye
(48.6000°N, 34.4000°E)
Time: 13:05:17
(UTC+00:00)

deb Kosmos-2237 - Pass Details

Date: 23 June 2021
Orbit: 850 x 1045 km, 71.0° (Epoch: 25 July)

Event Time Altitude Azimuth Distance (km) Brightness Sun altitude
Rises 23:25:39 0° 324° (NW) 3,756 ? -14.5°
Reaches altitude 10° 23:30:58 10° 360° (N) 2,841 ? -14.2°
Maximum altitude 23:32:36 11° 14° (NNE) 2,784 ? -14.1°
Drops below altitude 10° 23:34:13 10° 28° (NNE) 2,855 ? -13.9°
Sets 23:39:37 0° 64° (ENE) 3,817 ? -13.5°
